• In Czech Republic
  • List of Countries
  • For 7 days
  • Water Temperature
  • Satellite Maps
  • Weather Map
  • Weather Widgets
  • user-avatar
    Login

    Hourly Weather Musajid

    Today, 24 October, Tuesday

    Time Temperature Precipitation Wind Pressure Humidity
    00:00 +30°C° 0 mm 4 mps 758 mmHg 50%
    01:00 +30°C° 0 mm 3 mps 758 mmHg 50%
    02:00 +30°C° 0 mm 3 mps 758 mmHg 50%
    03:00 +29°C° 0 mm 3 mps 758 mmHg 50%
    04:00 +29°C° 0 mm 3 mps 759 mmHg 50%
    05:00 +28°C° 0 mm 2 mps 759 mmHg 51%
    06:00 +28°C° 0 mm 2 mps 759 mmHg 51%
    07:00 +30°C° 0 mm 2 mps 759 mmHg 45%
    08:00 +32°C° 0 mm 2 mps 760 mmHg 40%
    09:00 +35°C° 0 mm 2 mps 760 mmHg 35%
    10:00 +36°C° 0 mm 2 mps 760 mmHg 32%
    11:00 +37°C° 0 mm 2 mps 760 mmHg 29%
    12:00 +38°C° 0 mm 2 mps 760 mmHg 25%
    13:00 +38°C° 0 mm 2 mps 760 mmHg 25%
    14:00 +38°C° 0 mm 3 mps 759 mmHg 25%
    15:00 +38°C° 0 mm 3 mps 759 mmHg 26%
    16:00 +37°C° 0 mm 3 mps 759 mmHg 31%
    17:00 +35°C° 0 mm 3 mps 760 mmHg 36%
    18:00 +34°C° 0 mm 3 mps 760 mmHg 41%
    19:00 +33°C° 0 mm 4 mps 760 mmHg 43%
    20:00 +33°C° 0 mm 4 mps 760 mmHg 46%
    21:00 +32°C° 0 mm 4 mps 761 mmHg 48%
    22:00 +32°C° 0 mm 4 mps 761 mmHg 47%
    23:00 +30°C° 0 mm 4 mps 761 mmHg 47%

    Tomorrow, 25 October, Wednesday

    Time Temperature Precipitation Wind Pressure Humidity
    00:00 +30°C° 0 mm 4 mps 761 mmHg 46%
    01:00 +30°C° 0 mm 4 mps 760 mmHg 46%
    02:00 +29°C° 0 mm 4 mps 760 mmHg 46%
    03:00 +29°C° 0 mm 3 mps 760 mmHg 46%
    04:00 +29°C° 0 mm 3 mps 760 mmHg 49%
    05:00 +28°C° 0 mm 3 mps 761 mmHg 52%
    06:00 +28°C° 0 mm 3 mps 761 mmHg 56%
    07:00 +30°C° 0 mm 3 mps 761 mmHg 52%
    08:00 +32°C° 0 mm 2 mps 762 mmHg 48%
    09:00 +34°C° 0 mm 2 mps 762 mmHg 44%
    10:00 +35°C° 0 mm 2 mps 762 mmHg 41%
    11:00 +36°C° 0 mm 2 mps 761 mmHg 37%
    12:00 +37°C° 0 mm 2 mps 761 mmHg 33%
    13:00 +37°C° 0 mm 3 mps 761 mmHg 34%
    14:00 +37°C° 0 mm 4 mps 760 mmHg 35%
    15:00 +37°C° 0 mm 4 mps 760 mmHg 35%
    16:00 +35°C° 0 mm 4 mps 760 mmHg 43%
    17:00 +34°C° 0 mm 4 mps 760 mmHg 50%
    18:00 +33°C° 0 mm 4 mps 761 mmHg 57%
    19:00 +33°C° 0 mm 4 mps 761 mmHg 59%
    20:00 +32°C° 0 mm 4 mps 761 mmHg 61%
    21:00 +31°C° 0 mm 3 mps 762 mmHg 64%
    22:00 +30°C° 0 mm 3 mps 761 mmHg 64%
    23:00 +30°C° 0 mm 3 mps 761 mmHg 64%

    Day after tomorrow, 26 October, Thursday

    Time Temperature Precipitation Wind Pressure Humidity
    00:00 +29°C° 0 mm 3 mps 761 mmHg 64%
    01:00 +29°C° 0 mm 3 mps 761 mmHg 63%
    02:00 +29°C° 0 mm 3 mps 760 mmHg 61%
    03:00 +28°C° 0 mm 3 mps 760 mmHg 60%
    04:00 +28°C° 0 mm 3 mps 760 mmHg 59%
    05:00 +28°C° 0 mm 2 mps 761 mmHg 58%
    06:00 +28°C° 0 mm 2 mps 761 mmHg 57%
    07:00 +29°C° 0 mm 2 mps 761 mmHg 52%
    08:00 +31°C° 0 mm 2 mps 762 mmHg 48%
    09:00 +33°C° 0 mm 1 mps 762 mmHg 43%
    10:00 +34°C° 0 mm 1 mps 761 mmHg 39%
    11:00 +36°C° 0 mm 2 mps 761 mmHg 34%
    12:00 +37°C° 0 mm 2 mps 760 mmHg 30%
    13:00 +37°C° 0 mm 3 mps 760 mmHg 30%
    14:00 +37°C° 0 mm 3 mps 760 mmHg 29%
    15:00 +37°C° 0 mm 4 mps 759 mmHg 29%
    16:00 +36°C° 0 mm 4 mps 759 mmHg 36%
    17:00 +34°C° 0 mm 4 mps 760 mmHg 42%
    18:00 +33°C° 0 mm 4 mps 760 mmHg 48%
    19:00 +31°C° 0 mm 3 mps 760 mmHg 50%
    20:00 +31°C° 0 mm 3 mps 760 mmHg 52%
    21:00 +30°C° 0 mm 3 mps 761 mmHg 54%
    22:00 +30°C° 0 mm 3 mps 760 mmHg 54%
    23:00 +30°C° 0 mm 3 mps 760 mmHg 54%

    27 October, Friday

    Time Temperature Precipitation Wind Pressure Humidity
    00:00 +29°C° 0 mm 2 mps 760 mmHg 53%
    01:00 +29°C° 0 mm 2 mps 759 mmHg 53%
    02:00 +28°C° 0 mm 2 mps 759 mmHg 52%
    03:00 +28°C° 0 mm 2 mps 759 mmHg 52%
    04:00 +28°C° 0 mm 2 mps 759 mmHg 52%
    05:00 +28°C° 0 mm 2 mps 760 mmHg 51%
    06:00 +28°C° 0 mm 2 mps 760 mmHg 51%
    07:00 +30°C° 0 mm 2 mps 760 mmHg 47%
    08:00 +32°C° 0 mm 2 mps 761 mmHg 43%
    09:00 +33°C° 0 mm 1 mps 761 mmHg 39%
    10:00 +34°C° 0 mm 1 mps 760 mmHg 36%
    11:00 +35°C° 0 mm 1 mps 760 mmHg 33%
    12:00 +37°C° 0 mm 2 mps 759 mmHg 30%
    13:00 +37°C° 0 mm 2 mps 759 mmHg 30%
    14:00 +37°C° 0 mm 2 mps 758 mmHg 30%
    15:00 +37°C° 0 mm 3 mps 758 mmHg 30%
    16:00 +36°C° 0 mm 3 mps 758 mmHg 35%
    17:00 +35°C° 0 mm 3 mps 758 mmHg 40%
    18:00 +33°C° 0 mm 3 mps 759 mmHg 44%
    19:00 +33°C° 0 mm 3 mps 759 mmHg 45%
    20:00 +33°C° 0 mm 3 mps 759 mmHg 46%
    21:00 +32°C° 0 mm 4 mps 760 mmHg 47%
    22:00 +31°C° 0 mm 3 mps 759 mmHg 48%
    23:00 +31°C° 0 mm 3 mps 759 mmHg 49%

    28 October, Saturday

    Time Temperature Precipitation Wind Pressure Humidity
    00:00 +30°C° 0 mm 3 mps 759 mmHg 50%
    01:00 +30°C° 0 mm 2 mps 759 mmHg 51%
    02:00 +29°C° 0 mm 2 mps 759 mmHg 53%
    03:00 +29°C° 0 mm 2 mps 759 mmHg 54%
    04:00 +28°C° 0 mm 2 mps 759 mmHg 54%
    05:00 +28°C° 0 mm 1 mps 760 mmHg 54%
    06:00 +28°C° 0 mm 1 mps 760 mmHg 55%
    07:00 +30°C° 0 mm 1 mps 760 mmHg 49%
    08:00 +32°C° 0 mm 1 mps 761 mmHg 44%
    09:00 +34°C° 0 mm 1 mps 761 mmHg 38%
    10:00 +36°C° 0 mm 2 mps 760 mmHg 35%
    11:00 +37°C° 0 mm 2 mps 760 mmHg 31%
    12:00 +38°C° 0 mm 2 mps 759 mmHg 28%
    13:00 +38°C° 0 mm 3 mps 759 mmHg 29%
    14:00 +37°C° 0 mm 3 mps 759 mmHg 29%
    15:00 +37°C° 0 mm 4 mps 759 mmHg 30%
    16:00 +36°C° 0 mm 4 mps 759 mmHg 36%
    17:00 +35°C° 0 mm 4 mps 759 mmHg 42%
    18:00 +33°C° 0 mm 4 mps 759 mmHg 47%
    19:00 +33°C° 0 mm 4 mps 760 mmHg 48%
    20:00 +33°C° 0 mm 4 mps 760 mmHg 49%
    21:00 +33°C° 0 mm 4 mps 760 mmHg 50%
    22:00 +32°C° 0 mm 4 mps 760 mmHg 50%
    23:00 +32°C° 0 mm 4 mps 760 mmHg 49%

    29 October, Sunday

    Time Temperature Precipitation Wind Pressure Humidity
    00:00 +31°C° 0 mm 3 mps 759 mmHg 49%
    01:00 +31°C° 0 mm 3 mps 759 mmHg 49%
    02:00 +30°C° 0 mm 3 mps 759 mmHg 49%
    03:00 +30°C° 0 mm 3 mps 759 mmHg 49%
    04:00 +30°C° 0 mm 2 mps 760 mmHg 49%
    05:00 +29°C° 0 mm 2 mps 760 mmHg 50%
    06:00 +29°C° 0 mm 2 mps 760 mmHg 51%
    07:00 +31°C° 0 mm 1 mps 761 mmHg 46%
    08:00 +33°C° 0 mm 1 mps 761 mmHg 42%
    09:00 +34°C° 0 mm 1 mps 761 mmHg 37%
    10:00 +35°C° 0 mm 1 mps 760 mmHg 34%
    11:00 +36°C° 0 mm 1 mps 760 mmHg 31%
    12:00 +37°C° 0 mm 1 mps 759 mmHg 29%
    13:00 +37°C° 0 mm 1 mps 759 mmHg 28%
    14:00 +38°C° 0 mm 2 mps 759 mmHg 27%
    15:00 +38°C° 0 mm 2 mps 759 mmHg 26%
    16:00 +37°C° 0 mm 3 mps 759 mmHg 32%
    17:00 +35°C° 0 mm 3 mps 759 mmHg 37%
    18:00 +34°C° 0 mm 3 mps 759 mmHg 42%
    19:00 +33°C° 0 mm 3 mps 759 mmHg 43%
    20:00 +33°C° 0 mm 3 mps 760 mmHg 44%
    21:00 +32°C° 0 mm 2 mps 760 mmHg 45%
    22:00 +31°C° 0 mm 2 mps 760 mmHg 46%
    23:00 +31°C° 0 mm 2 mps 760 mmHg 47%

    30 October, Monday

    Time Temperature Precipitation Wind Pressure Humidity
    00:00 +30°C° 0 mm 1 mps 759 mmHg 47%
    01:00 +30°C° 0 mm 1 mps 759 mmHg 48%
    02:00 +29°C° 0 mm 1 mps 759 mmHg 49%
    03:00 +28°C° 0 mm 1 mps 759 mmHg 50%
    04:00 +28°C° 0 mm 1 mps 760 mmHg 48%
    05:00 +28°C° 0 mm 1 mps 760 mmHg 47%
    06:00 +28°C° 0 mm 1 mps 760 mmHg 45%
    07:00 +30°C° 0 mm 2 mps 761 mmHg 41%
    08:00 +32°C° 0 mm 2 mps 761 mmHg 36%
    09:00 +35°C° 0 mm 3 mps 761 mmHg 32%
    10:00 +36°C° 0 mm 2 mps 761 mmHg 30%
    11:00 +37°C° 0 mm 2 mps 760 mmHg 28%
    12:00 +38°C° 0 mm 2 mps 760 mmHg 26%
    13:00 +38°C° 0 mm 2 mps 760 mmHg 25%
    14:00 +38°C° 0 mm 2 mps 759 mmHg 23%
    15:00 +38°C° 0 mm 3 mps 759 mmHg 22%
    16:00 +37°C° 0 mm 3 mps 759 mmHg 27%
    17:00 +35°C° 0 mm 3 mps 760 mmHg 31%
    18:00 +34°C° 0 mm 3 mps 760 mmHg 36%
    19:00 +32°C° 0 mm 2 mps 760 mmHg 40%
    20:00 +31°C° 0 mm 2 mps 760 mmHg 45%
    21:00 +31°C° 0 mm 2 mps 760 mmHg 49%
    22:00 +30°C° 0 mm 1 mps 760 mmHg 52%
    23:00 +29°C° 0 mm 1 mps 760 mmHg 55%
    Show more